Terminal Aerodrome Forecast
Issued by NWS Amarillo, TX

Home | Current Version | Previous Version | Text Only | Print | Product List | Glossary On
Versions: 1 2 3 4 5 6 7 8 9 10 11 12 13 14 15
794
FTUS44 KAMA 031441 AAB
TAFAMA
TAF AMD
KAMA 031441Z 0315/0412 04006KT 1SM -RA BR OVC002
      TEMPO 0315/0318 1/2SM FG
     FM040000 03005KT 2SM BR OVC003
     FM040600 35005KT 1SM -RASN BR OVC003=

USA.gov is the U.S. government's official web portal to all federal, state and local government web resources and services.